Погода в Тайшете

Хотите узнать прогноз погоды в Тайшете? Тогда Вам сюда: Погода в Тайшете

Поиск расширенной информации на нашем сайте:

Полезная информация:

Новости сайта



02.01.2020
Опубликован Долгосрочный прогноз погоды по городам России и ближнего зарубежья на январь 2020 года.
Карты: Прогноз на январь и февраль 2020 года, Сравнение прогнозируемой аномалии приземной температуры воздуха на январь 2020 года по разным моделям.




Погода в Тайшете - сегодня

Время (UTC), дата Ветер
(°,м/с) 
Видим.   Явления Облачность Т
(°С)
Тd
(°С)
f(%) Тe
(°С)
Pmin
(гПа)
dP
(гПа)
Po
(мм)
O2
(г/м3)
Тmin Tmax R s Состояние
почвы
21 23.11.20 240 (ЮЗ) н/о  слаб. ливневой снег  10/10 600 м кучево-дожд. 
[Cb cap]
-5.9 -7.9 86 -6  1038.2  0.6  749  309           
00 24.11.20 090 (В) н/о  слаб. ливневой снег  10/10 600 м кучево-дожд. 
[Cb cap]
-6.8 -8.2 90 -6  1038.9  0.6  749  310  -6.8    0.3  неравномерный
сухой снег
100% 
03 24.11.20 160 (Ю) 20000 м  слаб. ливневой снег  10/10 600 м кучево-дожд. 
[Cb cap]
-5.6 -8.3 81 -5  1039.7  0.9  750  309           
06 24.11.20 070 (В) 20000 м  {ливн. осадки}  8/6 600 м кучево-дожд., средняя, верхняя 
[Cb cap|Ac trans|Ci fib]
-5.8 -9.7 74 -5  1039.5  -0.2  750  310           
09 24.11.20 060 (СВ) 20000 м  в посл. час ливневой снег  10/10 600 м кучево-дожд. 
[Cb cap]
-6.2 -9.7 76 -6  1039.9  0.3  750  310           
12 24.11.20 090 (В) н/о  {ливн. осадки}  10/10 600 м кучево-дожд. 
[Cb cap]
-7.4 -10.3 80 -7  1040.7  0.6  750  312    -5.2  0.2     
15 24.11.20 100 (В) н/о  слаб. ливневой снег  10/10 600 м кучево-дожд. 
[Cb cap]
-8 -10.4 83 -8  1041.1  0.3  751  313           
18 24.11.20 020 (С) н/о  слаб. ливневой снег  10/10 600 м кучево-дожд. 
[Cb cap]
-8.5 -10.6 85 -8  1041.3  0.1  751  313           
21 24.11.20 110 (В) н/о  в посл. час ливневой снег  10/10 600 м кучево-дожд. 
[Cb cap]
-7.6 -11.1 76 -7  1041  -0.2  751  312           
00 25.11.20 100 (В) н/о  {ливн. осадки}  10/10 600 м кучево-дожд. 
[Cb cap]
-7.7 -11.5 74 -7  1041.2  0.2  751  312  -8.7    0.0  неравномерный
сухой снег
100% 
03 25.11.20 110 (В) 20000 м  слаб. ливневой снег  10/8 600 м кучево-дожд., средняя, верхняя 
[Cb cap|Ac trans|Ci fib]
-7 -11.6 70 -7  1041.7  0.6  751  312           
06 25.11.20 090 (В) 20000 м  в посл. час ливневой снег  10/5 600 м кучево-дожд., средняя, верхняя 
[Cb cap|Ac trans|Ci fib]
-5.5 -11.2 64 -5  1041.3  -0.2  751  310           
09 25.11.20 030 (СВ) 20000 м    10/8 600 м кучево-дожд., средняя, верхняя 
[Cb cap|Ac trans|Ci fib]
-7.3 -12 69 -7  1042.2  -0.6  752  312           
12 25.11.20 330 (СЗ) н/о  {ливн. осадки}  10/8 600 м кучево-дожд., средняя, верхняя 
[Cb cap|Ac trans|Ci fib]
-7.4 -11.5 72 -7  1043.1  0.9  752  313    -5.3  0.0     
15 25.11.20 320 (СЗ) н/о    10/6 600 м кучево-дожд., средняя, верхняя 
[Cb cap|Ac trans|Ci fib]
-8 -11.3 77 -8  1043.7  0.4  752  313           
18 25.11.20 тихо ()   н/о    10/8 600 м кучево-дожд., средняя, верхняя 
[Cb cap|Ac trans|Ci fib]
-8.3 -10.7 83 -8  1044.2  0.5  753  314           
21 25.11.20 290 (З) н/о    10/6 600 м кучево-дожд., средняя, верхняя 
[Cb cap|Ac trans|Ci fib]
-8.3 -10.8 82 -8  1044.3  0.1  753  314           
00 26.11.20 250 (З) н/о  слаб. ливневой снег  10/6 600 м кучево-дожд., средняя, верхняя 
[Cb cap|Ac trans|Ci fib]
-8.6 -10.9 83 -8  1045.1  0.7  753  315  -8.7    0.0  неравномерный
сухой снег
100% 
03 26.11.20 280 (З) 20000 м    10/8 600 м кучево-дожд., средняя, верхняя 
[Cb cap|Ac trans|Ci fib]
-8.4 -10.9 82 -10  1045.8  0.8  754  315  -8.8         
06 26.11.20 030 (СВ) 20000 м    10/8 1000 м верхняя 
[Sc|Ci fib]
-7.2 -10.6 77 -7  1045.7  754  313           
09 26.11.20 150 (ЮВ) 20000 м    4/3 1000 м средняя, верхняя 
[Sc|Ac lent|Ci fib]
-9.3 -11.7 83 -9  1046.5  0.5  754  316           
12 26.11.20 тихо ()   н/о  дымка  ясно 
-13.8 -15.1 90 -14  1048  0.7  755  322    -7       
15 26.11.20 220 (ЮЗ) н/о    8/4 1000 м средняя, верхняя 
[Sc|Ac trans|Cs]
-14.6 -16.3 87 -15  1048.3  0.2  755  323           
18 26.11.20 тихо ()   н/о    4/1 1000 м средняя, верхняя 
[Sc|Ac trans|Ci fib]
-16 -17.9 85 -16  1048.9  0.3  755  325           
21 26.11.20 тихо ()   н/о    6/3 1000 м средняя, верхняя 
[Sc|Ac trans|Ci fib]
-17.1 -19.1 84 -17  1048.6  -0.4  755  326           
Время (UTC), дата Ветер
(°,м/с) 
Видим.   Явления Облачность Т
(°С)
Тd
(°С)
f(%) Тe
(°С)
Pmin
(гПа)
dP
(гПа)
Po
(мм)
O2
(г/м3)
Тmin Tmax R s Состояние
почвы

Для получения пояснительной информации подведите курсор к названию столбца.

ПОГОДА в Тайшете - архив

Всё, что Вы хотите узнать о погоде в Тайшете - удобно и подробно!

Выберите нужную дату (начиная с 1 января 2019* года) и нажмите кнопку "Найти".
Будут отображены архивные сводки погоды по пункту Тайшет, начиная с указанной даты.


Отображать данные в формате CSV (для использования в таблицах Excel)


Внимание! Наш архив погоды предназначен исключительно для личного некоммерческого использования в познавательных целях. Если Вам необходимы официальные справки о состоянии погоды (для производственных, юридических, коммерческих и т.п. целей), обращайтесь в органы Росгидромета.

*Примечание: данная дата относится к архиву по метеостанциям СССР (Россия, СНГ, Балтия).
Архив по метеостанциям Зарубежной Европы и Азии (кроме Китая) хранится 10 дней, по другим регионам земного шара (Китай, Африка, Америка, Австралия, Океания) - 1 день.

Тайшет - район местоположения метеостанции


Название, широта, долгота, высота метеостанции:
Тайшет 55.9°ш. 98°д. 307 м над ур. моря [Российская Федерация]

Дополнительная информация

В oтличие oт бoльшинства пoгoдных сайтoв мы публикуем пoдрoбную метеoинфoрмацию в детальнoм прoфессиoнальнoм фoрмате.

Характеристики температуры и влажнoсти вoздуха измеряются на высoте 2 м в тени вдали oт зданий и деревьев.
Скoрoсть ветра измеряется на высoте 10 м (на урoвне рoста челoвека скoрoсть ветра ниже в 1.5-2 раза). Если метеoстанция нахoдится в гoрoде или в лесу, тo скoрoсть ветра занижена на 2-4 м/с пo сравнению с oткрытым местoм. Скoрoсть ветра над акватoриями крупных рек и oзёр, а также на вершинах хoлмoв на 2-5 м/с выше, чем в oбычных услoвиях.
Атмoсфернoе давление в разных тoчках местнoсти мoжет значительнo oтличаться oт давления на метеoстанции, в зависимoсти oт услoвий рельефа (при пoдъёме на 10 м давление пoнижается примернo на 1 мм рт.ст.).